Powrót do katalogu

FENGYUN 1C DEB

AktywnySSO
NORAD 36231·DEBRIS·🇨🇳 China

Wystrzelony May 10, 1999 z Taiyuan Satellite Launch Center

Loading…

Następne Przeloty (najbliższe 24 godziny)

TLE

ŚwieżeSource: Space-Track

Epoka: Sep 14, 2026, 21:08 UTC

1 36231U 99025DVG 26257.88119126  .00000086  00000-0  69470-4 0  9992
2 36231  98.7223 229.8590 0059689 267.3380  92.0959 14.12127862894402

Śledź FENGYUN 1C DEB w czasie rzeczywistym z AllMySat

Download on the App Store